JG6YCL-13 Weather Reports


time (UTC)temp
F
wind
direction
speed
knots
gust
knots
rain 1hr
in
rain 24hr
in
rain mn
in
humidity
%
barometer
mb
20260505041739 75 0.0 0.0 0.00 0.00 0.00 37 1007.4
20260505041238 75 0.0 0.0 0.00 0.00 0.00 39 1007.5
20260505040737 74 0.0 0.0 0.00 0.00 0.00 37 1007.5
20260505040236 74 0.0 0.0 0.00 0.00 0.00 38 1007.5
20260505035738 74 0.0 0.0 0.00 0.00 0.00 39 1007.7
20260505035237 74 0.0 0.0 0.00 0.00 0.00 38 1007.7
20260505034736 74 0.0 0.0 0.00 0.00 0.00 39 1007.8
20260505034235 74 0.0 0.0 0.00 0.00 0.00 40 1007.8
20260505033736 74 0.0 0.0 0.00 0.00 0.00 40 1007.9
20260505033230 73 0.0 0.0 0.00 0.00 0.00 39 1008.0
20260505032742 73 0.0 0.0 0.00 0.00 0.00 39 1007.9
20260505032228 73 0.0 0.0 0.00 0.00 0.00 41 1007.9
20260505031727 73 0.0 0.0 0.00 0.00 0.00 41 1008.0
20260505031226 73 0.0 0.0 0.00 0.00 0.00 41 1008.1
20260505030725 73 0.0 0.0 0.00 0.00 0.00 42 1008.0
20260505030224 73 0.0 0.0 0.00 0.00 0.00 42 1008.1
20260505025723 73 0.0 0.0 0.00 0.00 0.00 43 1008.1
20260505025221 73 0.0 0.0 0.00 0.00 0.00 43 1008.3
20260505024721 73 0.0 0.0 0.00 0.00 0.00 43 1008.4
20260505024220 73 0.0 0.0 0.00 0.00 0.00 40 1008.4
20260505023719 73 0.0 0.0 0.00 0.00 0.00 40 1008.5
20260505023218 72 0.0 0.0 0.00 0.00 0.00 42 1008.4
20260505022718 73 0.0 0.0 0.00 0.00 0.00 42 1008.5
20260505022216 73 0.0 0.0 0.00 0.00 0.00 33 1008.7
20260505021715 73 0.0 0.0 0.00 0.00 0.00 34 1008.7
20260505021214 73 0.0 0.0 0.00 0.00 0.00 33 1008.7
20260505020714 73 0.0 0.0 0.00 0.00 0.00 33 1008.8
20260505020212 72 0.0 0.0 0.00 0.00 0.00 33 1008.8
20260505015711 72 0.0 0.0 0.00 0.00 0.00 32 1008.8
20260505015210 72 0.0 0.0 0.00 0.00 0.00 33 1008.9
20260505014709 72 0.0 0.0 0.00 0.00 0.00 32 1008.9
20260505014209 72 0.0 0.0 0.00 0.00 0.00 32 1008.9
20260505013716 72 0.0 0.0 0.00 0.00 0.00 32 1008.8
20260505013207 71 0.0 0.0 0.00 0.00 0.00 33 1008.9
20260505012711 71 0.0 0.0 0.00 0.00 0.00 34 1008.9
20260505012204 71 0.0 0.0 0.00 0.00 0.00 34 1009.0
20260505011709 70 0.0 0.0 0.00 0.00 0.00 34 1009.0
20260505011207 70 0.0 0.0 0.00 0.00 0.00 37 1009.0
20260505010708 70 0.0 0.0 0.00 0.00 0.00 35 1009.1
20260505010209 70 0.0 0.0 0.00 0.00 0.00 33 1009.1
20260505005709 69 0.0 0.0 0.00 0.00 0.00 32 1009.2
20260505005159 69 0.0 0.0 0.00 0.00 0.00 34 1009.1
20260505004657 69 0.0 0.0 0.00 0.00 0.00 37 1009.1
20260505004156 68 0.0 0.0 0.00 0.00 0.00 38 1009.1
20260505003656 68 0.0 0.0 0.00 0.00 0.00 36 1009.0
20260505003155 68 0.0 0.0 0.00 0.00 0.00 41 1009.0
20260505002653 67 0.0 0.0 0.00 0.00 0.00 46 1008.9
20260505002152 66 0.0 0.0 0.00 0.00 0.00 46 1008.9
20260505001652 66 0.0 0.0 0.00 0.00 0.00 48 1009.0
20260505001150 66 0.0 0.0 0.00 0.00 0.00 50 1009.0
20260505000649 65 0.0 0.0 0.00 0.00 0.00 53 1009.0
20260505000148 64 0.0 0.0 0.00 0.00 0.00 58 1009.1
20260504235648 64 0.0 0.0 0.00 0.00 0.00 63 1009.0
20260504235146 63 0.0 0.0 0.00 0.00 0.00 64 1009.0
20260504234645 63 0.0 0.0 0.00 0.00 0.00 65 1009.0
20260504234144 63 0.0 0.0 0.00 0.00 0.00 67 1009.0
20260504233643 62 0.0 0.0 0.00 0.00 0.00 69 1009.0
20260504233142 62 0.0 0.0 0.00 0.00 0.00 70 1009.0
20260504232642 61 0.0 0.0 0.00 0.00 0.00 71 1009.0
20260504232141 61 0.0 0.0 0.00 0.00 0.00 71 1008.9
20260504231639 61 0.0 0.0 0.00 0.00 0.00 73 1009.0
20260504231138 60 0.0 0.0 0.00 0.00 0.00 73 1008.9
20260504230637 60 0.0 0.0 0.00 0.00 0.00 74 1008.9
20260504230136 60 0.0 0.0 0.00 0.00 0.00 74 1008.8
20260504225636 59 0.0 0.0 0.00 0.00 0.00 75 1008.8
20260504225135 59 0.0 0.0 0.00 0.00 0.00 77 1008.7
20260504224636 58 0.0 0.0 0.00 0.00 0.00 79 1008.7
20260504224135 58 0.0 0.0 0.00 0.00 0.00 82 1008.6
20260504223631 58 0.0 0.0 0.00 0.00 0.00 83 1008.6
20260504223131 57 0.0 0.0 0.00 0.00 0.00 83 1008.6
20260504222629 57 0.0 0.0 0.00 0.00 0.00 84 1008.6
20260504222128 57 0.0 0.0 0.00 0.00 0.00 85 1008.7
20260504221627 56 0.0 0.0 0.00 0.00 0.00 86 1008.6
20260504221126 56 0.0 0.0 0.00 0.00 0.00 87 1008.6
20260504220625 56 0.0 0.0 0.00 0.00 0.00 87 1008.6
20260504220124 55 0.0 0.0 0.00 0.00 0.00 88 1008.5
20260504215623 55 0.0 0.0 0.00 0.00 0.00 88 1008.6
20260504215122 55 0.0 0.0 0.00 0.00 0.00 89 1008.5
20260504214622 55 0.0 0.0 0.00 0.00 0.00 89 1008.5
20260504214120 54 0.0 0.0 0.00 0.00 0.00 90 1008.5
20260504213619 54 0.0 0.0 0.00 0.00 0.00 90 1008.4
20260504213119 54 0.0 0.0 0.00 0.00 0.00 90 1008.5
20260504212617 54 0.0 0.0 0.00 0.00 0.00 91 1008.4
20260504212124 54 0.0 0.0 0.00 0.00 0.00 91 1008.4
20260504211615 54 0.0 0.0 0.00 0.00 0.00 91 1008.4
20260504211115 53 0.0 0.0 0.00 0.00 0.00 92 1008.3
20260504210616 53 0.0 0.0 0.00 0.00 0.00 91 1008.2
20260504210112 53 0.0 0.0 0.00 0.00 0.00 91 1008.0
20260504205611 53 0.0 0.0 0.00 0.00 0.00 91 1008.0
20260504205110 53 0.0 0.0 0.00 0.00 0.00 91 1008.0
20260504204611 53 0.0 0.0 0.00 0.00 0.00 91 1008.0
20260504204109 53 0.0 0.0 0.00 0.00 0.00 91 1007.9
20260504203608 53 0.0 0.0 0.00 0.00 0.00 90 1007.9
20260504203106 53 0.0 0.0 0.00 0.00 0.00 89 1007.9
20260504202608 53 0.0 0.0 0.00 0.00 0.00 88 1007.8
20260504202105 53 0.0 0.0 0.00 0.00 0.00 88 1007.8
20260504201603 54 0.0 0.0 0.00 0.00 0.00 88 1007.8
20260504201102 54 0.0 0.0 0.00 0.00 0.00 88 1007.7
20260504200603 54 0.0 0.0 0.00 0.00 0.00 88 1007.6
20260504200101 54 0.0 0.0 0.00 0.00 0.00 88 1007.7
20260504195559 54 0.0 0.0 0.00 0.00 0.00 88 1007.6
20260504195058 54 0.0 0.0 0.00 0.00 0.00 88 1007.5
20260504194558 54 0.0 0.0 0.00 0.00 0.00 87 1007.5
20260504194056 54 0.0 0.0 0.00 0.00 0.00 87 1007.5
20260504193555 54 0.0 0.0 0.00 0.00 0.00 87 1007.4
20260504193058 54 0.0 0.0 0.00 0.00 0.00 87 1007.5
20260504192553 54 0.0 0.0 0.00 0.00 0.00 87 1007.4
20260504192053 54 0.0 0.0 0.00 0.00 0.00 86 1007.4
20260504191552 54 0.0 0.0 0.00 0.00 0.00 86 1007.4
20260504191051 54 0.0 0.0 0.00 0.00 0.00 87 1007.3
20260504190550 55 0.0 0.0 0.00 0.00 0.00 86 1007.3
20260504190048 55 0.0 0.0 0.00 0.00 0.00 87 1007.3
20260504185549 55 0.0 0.0 0.00 0.00 0.00 86 1007.3
20260504185048 55 0.0 0.0 0.00 0.00 0.00 86 1007.3
20260504184545 55 0.0 0.0 0.00 0.00 0.00 86 1007.3
20260504184044 55 0.0 0.0 0.00 0.00 0.00 86 1007.3
20260504183543 55 0.0 0.0 0.00 0.00 0.00 85 1007.3
20260504183043 55 0.0 0.0 0.00 0.00 0.00 86 1007.3
20260504182542 55 0.0 0.0 0.00 0.00 0.00 86 1007.3
20260504182041 55 0.0 0.0 0.00 0.00 0.00 86 1007.2
20260504181539 55 0.0 0.0 0.00 0.00 0.00 86 1007.2
20260504181040 55 0.0 0.0 0.00 0.00 0.00 86 1007.2
20260504180537 55 0.0 0.0 0.00 0.00 0.00 86 1007.2
20260504180037 55 0.0 0.0 0.00 0.00 0.00 85 1007.1
20260504175538 55 0.0 0.0 0.00 0.00 0.00 85 1007.1
20260504175048 56 0.0 0.0 0.00 0.00 0.00 86 1007.0
20260504174537 55 0.0 0.0 0.00 0.00 0.00 86 1007.0
20260504174039 56 0.0 0.0 0.00 0.00 0.00 86 1007.0
20260504173537 55 0.0 0.0 0.00 0.00 0.00 86 1006.9
20260504173030 56 0.0 0.0 0.00 0.00 0.00 85 1006.9
20260504172530 56 0.0 0.0 0.00 0.00 0.00 85 1007.0
20260504172028 56 0.0 0.0 0.00 0.00 0.00 85 1006.9
20260504171527 56 0.0 0.0 0.00 0.00 0.00 86 1006.9
20260504171026 56 0.0 0.0 0.00 0.00 0.00 86 1006.9
20260504170525 56 0.0 0.0 0.00 0.00 0.00 86 1006.8
20260504151005 58 0.0 0.0 0.00 0.00 0.00 78 1006.6
20260504150501 59 0.0 0.0 0.00 0.00 0.00 77 1006.6
20260504140950 61 0.0 0.0 0.00 0.00 0.00 71 1006.7
20260504140449 61 0.0 0.0 0.00 0.00 0.00 70 1006.7
20260504130437 62 0.0 0.0 0.00 0.00 0.00 67 1006.5
20260504110413 64 0.0 0.0 0.00 0.00 0.00 60 1005.2
20260504100401 65 0.0 0.0 0.00 0.00 0.00 55 1004.3
20260504081840 68 0.0 0.0 0.00 0.00 0.00 49 1003.6
20260504081339 68 0.0 0.0 0.00 0.00 0.00 49 1003.6
20260504080838 68 0.0 0.0 0.00 0.00 0.00 49 1003.6
20260504080337 68 0.0 0.0 0.00 0.00 0.00 49 1003.8
20260504070325 68 0.0 0.0 0.00 0.00 0.00 50 1003.8
20260504050301 69 0.0 0.0 0.00 0.00 0.00 41 1003.1